This is the latest recevied weather packets stored in our database for station/object KB4RFE. If no packets are shown the sender has not sent any weather packets the latest 10 day(s).
| Time | Temp. | Humidity | Pressure | Rain* | Wind** | Luminosity | Snow |
|---|---|---|---|---|---|---|---|
| 1778025126 | 21.11° C | 67% | 1019.5 hPa | 0 mm | - | 9 W/m² | - |
| 1778024823 | 21.11° C | 67% | 1019.3 hPa | 0 mm | - | 12 W/m² | - |
| 1778024521 | 21.11° C | 66% | 1019.3 hPa | 0 mm | - | 15 W/m² | - |
| 1778024217 | 21.67° C | 66% | 1019.3 hPa | 0 mm | - | 18 W/m² | - |
| 1778023915 | 21.67° C | 64% | 1019.4 hPa | 0 mm | - | 20 W/m² | - |
| 1778023612 | 21.67° C | 64% | 1019.2 hPa | 0 mm | - | 23 W/m² | - |
| 1778023310 | 21.67° C | 65% | 1019.2 hPa | 0 mm | - | 26 W/m² | - |
| 1778023006 | 21.67° C | 63% | 1019.4 hPa | 0 mm | - | 27 W/m² | - |
| 1778022705 | 21.67° C | 63% | 1019.4 hPa | 0 mm | - | 28 W/m² | - |
| 1778022403 | 21.67° C | 63% | 1019.5 hPa | 0 mm | - | 30 W/m² | - |
| 1778022099 | 21.67° C | 66% | 1019.6 hPa | 0 mm | - | 32 W/m² | - |
| 1778021795 | 22.22° C | 65% | 1019.5 hPa | 0 mm | - | 34 W/m² | - |
| 1778021491 | 22.22° C | 64% | 1019.3 hPa | 0 mm | - | 33 W/m² | - |
| 1778021188 | 22.22° C | 63% | 1019.5 hPa | 0 mm | - | 39 W/m² | - |
| 1778020886 | 22.22° C | 62% | 1019.4 hPa | 0 mm | - | 41 W/m² | - |
| 1778020583 | 22.22° C | 62% | 1019.5 hPa | 0 mm | - | 44 W/m² | - |
| 1778020279 | 22.22° C | 63% | 1019.5 hPa | 0 mm | - | 45 W/m² | - |
| 1778019975 | 22.22° C | 60% | 1019.6 hPa | 0 mm | - | 46 W/m² | - |
| 1778019671 | 22.22° C | 61% | 1019.5 hPa | 0 mm | - | 49 W/m² | - |
| 1778019369 | 22.78° C | 62% | 1019.4 hPa | 0 mm | - | 57 W/m² | - |
| 1778019065 | 22.78° C | 61% | 1019.5 hPa | 0 mm | - | 78 W/m² | - |
| 1778018763 | 22.78° C | 61% | 1019.6 hPa | 0 mm | - | 84 W/m² | - |
| 1778018460 | 22.78° C | 63% | 1019.7 hPa | 0 mm | - | 79 W/m² | - |
| 1778018158 | 22.78° C | 61% | 1019.6 hPa | 0 mm | - | 134 W/m² | - |
| 1778017856 | 22.78° C | 60% | 1019.7 hPa | 0 mm | - | 103 W/m² | - |
* Rain latest hour (hover to see other rain measurements)
** Current wind speed in m/s (hover to see current wind gust speed)